TimeEST,TemperatureF,Dew PointF,Humidity,Sea Level PressureIn,VisibilityMPH,Wind Direction,Wind SpeedMPH,Gust SpeedMPH,PrecipitationIn,Events,Conditions,WindDirDegrees,DateUTC
12:53 AM,36.0,30.9,82,29.98,10.0,South,4.6,-,N/A,,Mostly Cloudy,170,2012-12-07 05:53:00
1:53 AM,37.9,32.0,79,29.97,10.0,SSW,3.5,-,N/A,,Overcast,200,2012-12-07 06:53:00
2:53 AM,37.9,33.1,83,29.98,10.0,Calm,Calm,-,N/A,,Overcast,0,2012-12-07 07:53:00
3:53 AM,39.0,34.0,82,29.98,10.0,Calm,Calm,-,N/A,,Overcast,0,2012-12-07 08:53:00
4:53 AM,39.0,35.1,86,29.96,10.0,SSW,5.8,-,N/A,,Mostly Cloudy,200,2012-12-07 09:53:00
5:53 AM,39.9,36.0,86,29.97,8.0,SW,5.8,-,N/A,,Overcast,220,2012-12-07 10:53:00
7:53 AM,41.0,37.9,89,29.99,6.0,South,3.5,-,0.00,Rain,Light Rain,190,2012-12-07 12:53:00
8:53 AM,41.0,39.0,93,29.99,3.0,Calm,Calm,-,0.01,,Overcast,0,2012-12-07 13:53:00
9:21 AM,42.8,39.2,87,29.99,2.5,Calm,Calm,-,0.01,Rain,Light Rain,0,2012-12-07 14:21:00
9:32 AM,42.8,39.2,87,29.99,3.0,SSW,4.6,-,0.01,Rain,Light Rain,210,2012-12-07 14:32:00
9:53 AM,42.1,39.9,92,30.00,3.0,SW,4.6,-,0.01,,Overcast,220,2012-12-07 14:53:00
10:53 AM,44.1,41.0,89,30.00,4.0,WSW,5.8,-,0.00,Rain,Light Rain,250,2012-12-07 15:53:00
11:53 AM,44.1,41.0,89,29.97,5.0,WSW,4.6,-,0.00,,Overcast,250,2012-12-07 16:53:00
12:11 PM,44.6,41.0,87,29.95,4.0,WSW,4.6,-,N/A,,Overcast,240,2012-12-07 17:11:00
12:53 PM,45.0,41.0,86,29.95,4.0,WSW,3.5,-,N/A,,Overcast,240,2012-12-07 17:53:00
1:00 PM,44.6,41.0,87,29.94,4.0,SW,4.6,-,N/A,,Overcast,230,2012-12-07 18:00:00
1:15 PM,44.6,42.8,93,29.94,4.0,SW,3.5,-,N/A,,Overcast,230,2012-12-07 18:15:00
1:45 PM,46.4,42.8,87,29.92,4.0,SSW,4.6,-,N/A,,Overcast,200,2012-12-07 18:45:00
1:53 PM,46.0,42.1,86,29.93,4.0,SSW,5.8,-,N/A,,Overcast,210,2012-12-07 18:53:00
2:53 PM,46.0,42.1,86,29.92,4.0,Calm,Calm,-,N/A,,Overcast,0,2012-12-07 19:53:00
3:10 PM,46.4,42.8,87,29.91,4.0,SW,3.5,-,N/A,,Overcast,230,2012-12-07 20:10:00
3:48 PM,46.4,42.8,87,29.92,4.0,Calm,Calm,-,N/A,,Overcast,0,2012-12-07 20:48:00
3:53 PM,46.0,43.0,89,29.93,4.0,Calm,Calm,-,N/A,,Overcast,0,2012-12-07 20:53:00
4:53 PM,46.9,43.0,86,29.93,4.0,Calm,Calm,-,N/A,,Overcast,0,2012-12-07 21:53:00
5:19 PM,46.4,42.8,87,29.91,5.0,Calm,Calm,-,N/A,,Overcast,0,2012-12-07 22:19:00
5:53 PM,46.0,42.1,86,29.93,5.0,NE,3.5,-,N/A,,Overcast,40,2012-12-07 22:53:00
6:13 PM,44.6,42.8,93,29.92,4.0,ENE,3.5,-,N/A,,Overcast,60,2012-12-07 23:13:00
6:34 PM,44.6,42.8,93,29.92,4.0,NE,3.5,-,0.00,Rain,Light Rain,50,2012-12-07 23:34:00
6:53 PM,43.0,41.0,93,29.93,4.0,NE,4.6,-,0.01,Rain,Light Rain,50,2012-12-07 23:53:00
7:53 PM,43.0,41.0,93,29.93,3.0,ENE,4.6,-,0.02,Rain,Light Rain,70,2012-12-08 00:53:00
8:10 PM,42.8,41.0,93,29.91,2.5,ENE,5.8,-,0.00,Rain,Light Rain,70,2012-12-08 01:10:00
8:25 PM,42.8,41.0,93,29.91,2.5,ENE,4.6,-,0.01,Rain,Light Rain,60,2012-12-08 01:25:00
8:40 PM,42.8,41.0,93,29.91,2.5,ENE,5.8,-,0.01,Rain,Light Rain,60,2012-12-08 01:40:00
8:53 PM,43.0,41.0,93,29.92,2.5,ENE,5.8,-,0.01,Rain,Light Rain,70,2012-12-08 01:53:00
9:14 PM,42.8,41.0,93,29.91,2.0,ENE,4.6,-,0.01,Rain,Light Rain,70,2012-12-08 02:14:00
9:40 PM,42.8,41.0,93,29.90,2.0,ENE,4.6,-,0.03,Rain,Light Rain,60,2012-12-08 02:40:00
9:53 PM,42.1,41.0,96,29.91,2.0,ENE,4.6,-,0.04,Rain,Light Rain,70,2012-12-08 02:53:00
10:04 PM,42.8,41.0,93,29.90,1.8,ENE,4.6,-,0.00,Rain,Light Rain,70,2012-12-08 03:04:00
10:17 PM,42.8,41.0,93,29.89,2.0,ENE,4.6,-,0.01,Rain,Light Rain,60,2012-12-08 03:17:00
10:53 PM,42.1,41.0,96,29.89,2.0,NE,4.6,-,0.01,Rain,Light Rain,50,2012-12-08 03:53:00
11:53 PM,43.0,41.0,93,29.89,2.0,NE,4.6,-,0.00,,Overcast,50,2012-12-08 04:53:00